FW0403 Weather Reports


Display with metric or nautical units.
time (UTC)temp
F
wind
direction
speed
MPH
gust
MPH
rain 1hr
in
rain 24hr
in
rain mn
in
humidity
%
barometer
mb
20260901232535 89 296 3.0 9.0 0.00 0.00 0.00 63 1011.8
20260901232019 89 7 3.0 9.0 0.00 0.00 0.00 63 1011.7
20260901231519 89 303 2.0 8.0 0.00 0.00 0.00 63 1011.7
20260901231013 89 304 2.0 7.0 0.00 0.00 0.00 64 1011.8
20260901230458 89 296 3.0 8.0 0.00 0.00 0.00 63 1011.7
20260901225937 89 277 3.0 8.0 0.00 0.00 0.00 64 1011.8
20260901224754 88 302 3.0 10.0 0.00 0.00 0.00 64 1011.6
20260901223622 88 310 3.0 10.0 0.00 0.00 0.00 64 1011.8
20260901223110 88 357 3.0 10.0 0.00 0.00 0.00 63 1011.8
20260901222549 88 248 3.0 10.0 0.00 0.00 0.00 64 1011.9
20260901222050 88 286 3.0 10.0 0.00 0.00 0.00 64 1011.8
20260901221557 88 299 4.0 10.0 0.00 0.00 0.00 64 1011.8
20260901220416 88 15 3.0 10.0 0.00 0.00 0.00 64 1011.9
20260901215910 88 295 4.0 10.0 0.00 0.00 0.00 63 1011.7
20260901214735 88 292 2.0 9.0 0.00 0.00 0.00 62 1011.8
20260901214218 88 347 2.0 9.0 0.00 0.00 0.00 62 1011.9
20260901213721 88 269 2.0 10.0 0.00 0.00 0.00 63 1012.0
20260901213226 88 302 3.0 10.0 0.00 0.00 0.00 63 1011.9
20260901212720 87 335 3.0 10.0 0.00 0.00 0.00 63 1012.0
20260901211604 88 314 2.0 6.0 0.00 0.00 0.00 64 1012.1
20260901210425 87 318 2.0 5.0 0.00 0.00 0.00 65 1012.3
20260901205903 87 343 2.0 10.0 0.00 0.00 0.00 65 1012.3
20260901205346 86 283 4.0 10.0 0.00 0.00 0.00 65 1012.5
20260901204838 87 305 4.0 10.0 0.00 0.00 0.00 67 1012.5
20260901204332 87 273 3.0 10.0 0.00 0.00 0.00 69 1012.5
20260901203823 87 293 3.0 10.0 0.00 0.00 0.00 68 1012.5
20260901202645 87 298 3.0 10.0 0.00 0.00 0.00 69 1012.4
20260901202125 87 324 2.0 9.0 0.00 0.00 0.00 68 1012.4
20260901201623 86 327 2.0 9.0 0.00 0.00 0.00 69 1012.5
20260901201111 86 348 3.0 9.0 0.00 0.00 0.00 68 1012.5
20260901200550 86 18 4.0 10.0 0.00 0.00 0.00 69 1012.5
20260901200049 86 7 4.0 10.0 0.00 0.00 0.00 70 1012.5
20260901195535 86 299 4.0 10.0 0.00 0.00 0.00 69 1012.6
20260901195031 86 336 3.0 10.0 0.00 0.00 0.00 69 1012.5
20260901194520 86 316 2.0 8.0 0.00 0.00 0.00 71 1012.5
20260901194023 86 319 2.0 5.0 0.00 0.00 0.00 71 1012.6
20260901193501 86 327 2.0 10.0 0.00 0.00 0.00 72 1012.8
20260901193006 86 296 4.0 10.0 0.00 0.00 0.00 71 1012.8
20260901192506 86 357 4.0 10.0 0.00 0.00 0.00 71 1013.0
20260901192006 86 2 3.0 10.0 0.00 0.00 0.00 71 1013.1
20260901190839 86 334 5.0 10.0 0.00 0.00 0.00 71 1013.3
20260901190330 86 330 5.0 10.0 0.00 0.00 0.00 71 1013.3
20260901185818 86 289 5.0 10.0 0.00 0.00 0.00 71 1013.3
20260901185317 86 2 4.0 10.0 0.00 0.00 0.00 71 1013.3
20260901184815 86 357 3.0 9.0 0.00 0.00 0.00 71 1013.5
20260901184317 87 348 3.0 9.0 0.00 0.00 0.00 71 1013.6
20260901183810 87 345 3.0 9.0 0.00 0.00 0.00 70 1013.8
20260901183249 87 24 2.0 7.0 0.00 0.00 0.00 70 1013.9
20260901182737 87 302 2.0 10.0 0.00 0.00 0.00 70 1014.2
20260901181629 87 335 4.0 14.0 0.00 0.00 0.00 71 1014.0
20260901181112 86 17 4.0 14.0 0.00 0.00 0.00 71 1014.0
20260901175945 86 357 5.0 12.0 0.00 0.00 0.00 70 1013.9
20260901174837 86 2 6.0 15.0 0.00 0.00 0.00 72 1013.7
20260901174340 86 292 7.0 15.0 0.00 0.00 0.00 72 1013.8
20260901173834 86 7 8.0 15.0 0.00 0.00 0.00 72 1013.8
20260901173340 86 357 8.0 15.0 0.00 0.00 0.00 73 1013.9
20260901172848 86 12 9.0 15.0 0.00 0.00 0.00 73 1013.9
20260901172332 86 13 9.0 15.0 0.00 0.00 0.00 72 1013.9
20260901171827 86 2 7.0 15.0 0.00 0.00 0.00 72 1014.0
20260901170656 86 7 6.0 14.0 0.00 0.00 0.00 73 1014.2
20260901170202 86 12 7.0 14.0 0.00 0.00 0.00 73 1014.4
20260901165702 86 2 8.0 14.0 0.00 0.00 0.00 73 1014.4
20260901165155 86 329 8.0 14.0 0.00 0.00 0.00 74 1014.5
20260901164652 86 2 7.0 14.0 0.00 0.00 0.00 74 1014.6
20260901164157 86 2 6.0 14.0 0.00 0.00 0.00 75 1014.6
20260901163637 85 18 7.0 13.0 0.00 0.00 0.00 75 1014.6
20260901163140 85 357 8.0 14.0 0.00 0.00 0.00 75 1014.7
20260901162642 85 16 8.0 14.0 0.00 0.02 0.00 75 1014.8
20260901162127 85 59 8.0 14.0 0.00 0.02 0.00 75 1014.8
20260901161617 85 335 8.0 14.0 0.00 0.02 0.00 76 1014.8
20260901161107 85 48 9.0 17.0 0.00 0.02 0.00 76 1014.8
20260901160614 85 85 9.0 17.0 0.00 0.02 0.00 76 1014.9
20260901155607 85 29 9.0 17.0 0.00 0.02 0.00 76 1014.6
20260901155107 85 2 6.0 15.0 0.00 0.02 0.00 76 1014.5
20260901154555 86 57 2.0 9.0 0.00 0.02 0.00 76 1014.4
20260901154034 86 2 1.0 7.0 0.00 0.02 0.00 76 1014.5
20260901153519 86 294 2.0 6.0 0.00 0.02 0.00 77 1014.3
20260901153012 86 338 1.0 6.0 0.00 0.02 0.00 76 1014.3
20260901152508 86 357 1.0 4.0 0.00 0.02 0.00 77 1014.4
20260901151952 86 278 0.0 4.0 0.00 0.02 0.00 77 1014.4
20260901151432 86 302 0.0 5.0 0.00 0.02 0.00 77 1014.4
20260901150926 85 294 1.0 5.0 0.00 0.02 0.00 77 1014.4
20260901150423 85 357 2.0 7.0 0.00 0.02 0.00 77 1014.4
20260901145921 85 323 2.0 7.0 0.00 0.02 0.00 77 1014.4
20260901145403 85 306 2.0 8.0 0.00 0.02 0.00 77 1014.3
20260901144844 85 313 2.0 8.0 0.00 0.02 0.00 78 1014.4
20260901144341 85 296 1.0 8.0 0.00 0.02 0.00 77 1014.4
20260901143827 85 299 1.0 8.0 0.00 0.02 0.00 77 1014.4
20260901143330 85 294 1.0 7.0 0.00 0.02 0.00 77 1014.5
20260901142827 85 338 1.0 7.0 0.00 0.02 0.00 77 1014.4
20260901142308 85 288 2.0 8.0 0.00 0.02 0.00 77 1014.3
20260901141125 85 339 2.0 8.0 0.00 0.02 0.00 78 1014.4
20260901140606 85 294 1.0 8.0 0.00 0.02 0.00 78 1014.1
20260901140052 85 302 1.0 4.0 0.00 0.02 0.00 79 1014.2
20260901135538 85 311 1.0 5.0 0.00 0.02 0.00 79 1014.1
20260901135040 85 7 0.0 5.0 0.00 0.02 0.00 79 1014.1
20260901134533 85 322 1.0 5.0 0.00 0.02 0.00 80 1014.1
20260901134029 85 350 1.0 5.0 0.00 0.02 0.00 80 1014.1
20260901133513 85 330 0.0 5.0 0.00 0.02 0.00 80 1014.1
20260901132343 84 2 1.0 5.0 0.00 0.02 0.00 81 1014.1
20260901131841 84 296 0.0 5.0 0.00 0.02 0.00 81 1014.1
20260901131329 84 7 0.0 5.0 0.00 0.02 0.00 81 1014.1
20260901130834 84 337 0.0 5.0 0.00 0.02 0.00 81 1014.1
20260901130326 84 336 1.0 5.0 0.00 0.02 0.00 81 1014.0
20260901125151 84 255 1.0 3.0 0.00 0.02 0.00 81 1013.9
20260901124528 84 357 1.0 8.0 0.00 0.03 0.00 81 1013.8
20260901124012 84 324 2.0 8.0 0.00 0.03 0.00 82 1013.6
20260901122847 84 7 1.0 6.0 0.00 0.03 0.00 82 1013.5
20260901122341 84 7 2.0 6.0 0.00 0.03 0.00 82 1013.4
20260901121221 84 357 1.0 4.0 0.00 0.03 0.00 81 1013.3
20260901115430 84 284 1.0 4.0 0.00 0.03 0.00 81 1013.3
20260901114916 83 357 1.0 7.0 0.00 0.03 0.00 81 1013.1
20260901114404 83 298 1.0 7.0 0.00 0.03 0.00 81 1013.2
20260901113848 83 341 2.0 8.0 0.00 0.03 0.00 80 1013.1
20260901113326 83 272 2.0 8.0 0.00 0.03 0.00 80 1013.1
20260901112816 83 319 1.0 9.0 0.00 0.03 0.00 80 1013.1
20260901112308 83 310 1.0 9.0 0.00 0.03 0.00 80 1013.1
20260901111805 83 306 2.0 9.0 0.00 0.03 0.00 80 1013.1
20260901111245 83 291 2.0 9.0 0.00 0.03 0.00 80 1013.1
20260901110748 83 288 2.0 8.0 0.00 0.03 0.00 80 1013.1
20260901110248 83 15 3.0 8.0 0.00 0.03 0.00 80 1013.0
20260901105726 84 299 3.0 9.0 0.00 0.03 0.00 79 1013.0
20260901104607 84 306 3.0 9.0 0.00 0.03 0.00 79 1012.8
20260901104055 84 348 3.0 8.0 0.00 0.03 0.00 79 1012.9
20260901103551 84 273 3.0 8.0 0.00 0.03 0.00 79 1013.0
20260901103034 84 357 2.0 8.0 0.00 0.03 0.00 79 1013.0
20260901102511 84 315 4.0 10.0 0.00 0.03 0.00 79 1013.0
20260901101349 84 281 3.0 10.0 0.00 0.03 0.00 79 1013.0
20260901100827 84 298 3.0 10.0 0.00 0.03 0.00 78 1013.1
20260901100322 84 315 3.0 10.0 0.00 0.03 0.00 79 1013.0
20260901095801 84 296 3.0 9.0 0.00 0.03 0.00 78 1013.0
20260901094628 85 297 3.0 9.0 0.00 0.03 0.00 77 1013.1
20260901094132 85 308 3.0 9.0 0.00 0.03 0.00 77 1013.2
20260901093636 85 292 1.0 7.0 0.00 0.03 0.00 77 1013.2
20260901093119 85 72 0.0 0.0 0.00 0.03 0.00 76 1013.2
20260901092609 85 72 0.0 0.0 0.00 0.03 0.00 76 1013.2
20260901090748 86 92 1.0 2.0 0.00 0.03 0.00 75 1013.3
20260901090251 86 92 0.0 2.0 0.00 0.03 0.00 75 1013.3
20260901085758 86 92 0.0 2.0 0.00 0.03 0.00 74 1013.4
20260901085248 86 92 0.0 0.0 0.00 0.03 0.00 74 1013.5
20260901084746 86 92 0.0 0.0 0.00 0.03 0.00 73 1013.5
20260901084248 86 92 0.0 0.0 0.00 0.03 0.00 73 1013.5
20260901083125 87 92 0.0 0.0 0.00 0.03 0.00 72 1013.5
20260901082603 87 92 0.0 0.0 0.00 0.03 0.00 72 1013.5
20260901082049 87 92 0.0 0.0 0.00 0.03 0.00 71 1013.5
20260901081535 87 92 0.0 0.0 0.00 0.03 0.00 72 1013.4
20260901081030 87 92 1.0 0.0 0.00 0.03 0.00 72 1013.3
20260901080518 87 92 2.0 8.0 0.00 0.03 0.00 72 1013.2
20260901075335 87 80 3.0 8.0 0.00 0.03 0.00 72 1013.3
20260901074834 87 114 3.0 8.0 0.00 0.03 0.00 72 1013.3
20260901074323 87 98 3.0 8.0 0.00 0.03 0.00 72 1013.3
20260901073815 87 98 4.0 8.0 0.00 0.03 0.00 72 1013.4
20260901073258 87 100 5.0 10.0 0.00 0.03 0.00 72 1013.4
20260901072743 87 105 4.0 10.0 0.00 0.03 0.00 73 1013.4
20260901072244 88 87 5.0 10.0 0.00 0.03 0.00 73 1013.4
20260901071727 88 73 5.0 10.0 0.00 0.03 0.00 73 1013.5
20260901071205 88 111 5.0 9.0 0.00 0.03 0.00 73 1013.5
20260901070644 88 103 5.0 11.0 0.00 0.03 0.00 73 1013.7
20260901070149 88 94 5.0 11.0 0.00 0.03 0.00 72 1013.8
20260901065034 88 103 6.0 11.0 0.00 0.03 0.00 73 1013.7
20260901064527 88 96 5.0 9.0 0.00 0.03 0.00 73 1013.7
20260901064005 88 69 5.0 9.0 0.00 0.03 0.00 72 1013.6
20260901063512 88 81 5.0 9.0 0.00 0.03 0.00 73 1013.7
20260901063013 88 89 5.0 9.0 0.00 0.03 0.00 73 1013.7
20260901062453 88 71 4.0 7.0 0.00 0.03 0.00 73 1013.7
20260901061333 88 94 4.0 10.0 0.00 0.03 0.00 72 1013.6
20260901060838 88 85 5.0 10.0 0.00 0.03 0.00 72 1013.6
20260901060340 88 67 6.0 10.0 0.00 0.03 0.00 72 1013.6
20260901055843 88 100 6.0 10.0 0.00 0.03 0.00 72 1013.8
20260901055324 89 68 6.0 10.0 0.00 0.03 0.00 72 1013.8
20260901054810 89 71 7.0 10.0 0.00 0.03 0.00 72 1013.9
20260901054300 89 73 6.0 10.0 0.00 0.03 0.00 72 1013.8
20260901053752 89 84 6.0 10.0 0.00 0.03 0.00 71 1013.9
20260901053234 88 83 6.0 11.0 0.00 0.03 0.00 71 1013.9
20260901052727 89 91 6.0 11.0 0.00 0.03 0.00 71 1014.0
20260901051545 89 100 6.0 11.0 0.00 0.03 0.00 71 1013.9
20260901051048 89 90 5.0 10.0 0.00 0.03 0.00 71 1013.9
20260901045909 89 81 6.0 11.0 0.00 0.03 0.03 71 1013.9
20260901045348 89 101 6.0 11.0 0.00 0.03 0.03 71 1013.9
20260901044842 89 95 6.0 11.0 0.00 0.03 0.03 70 1013.7
20260901044326 89 95 6.0 10.0 0.00 0.03 0.03 70 1013.5
20260901043819 88 73 6.0 10.0 0.00 0.03 0.03 70 1013.6
20260901043309 89 70 6.0 10.0 0.00 0.03 0.03 70 1013.5
20260901042801 89 88 5.0 10.0 0.00 0.03 0.03 71 1013.6
20260901042305 89 69 5.0 10.0 0.00 0.03 0.03 70 1013.7
20260901041748 88 104 6.0 10.0 0.00 0.03 0.03 70 1013.8
20260901041227 88 80 5.0 10.0 0.00 0.03 0.03 70 1013.7
20260901035549 88 110 4.0 8.0 0.00 0.03 0.03 70 1013.7
20260901035030 88 96 4.0 8.0 0.00 0.03 0.03 69 1013.7
20260901034526 88 98 3.0 8.0 0.00 0.03 0.03 70 1013.8
20260901033405 88 95 4.0 8.0 0.00 0.03 0.03 70 1013.8
20260901032854 88 102 4.0 10.0 0.00 0.03 0.03 70 1013.8
20260901032347 88 114 4.0 10.0 0.00 0.03 0.03 70 1013.8
20260901031843 88 74 4.0 10.0 0.00 0.03 0.03 71 1013.7
20260901031327 88 103 3.0 10.0 0.00 0.03 0.03 70 1013.7
20260901030150 88 97 2.0 7.0 0.00 0.03 0.03 70 1013.5
20260901025629 88 91 2.0 7.0 0.00 0.03 0.03 70 1013.4
20260901025113 88 86 3.0 7.0 0.00 0.03 0.03 70 1013.3
20260901024604 88 127 2.0 6.0 0.00 0.03 0.03 70 1013.3
20260901024052 88 90 1.0 4.0 0.00 0.03 0.03 69 1013.2
20260901023547 88 150 1.0 4.0 0.00 0.03 0.03 69 1013.1
20260901023048 88 103 1.0 4.0 0.00 0.03 0.03 69 1013.1
20260901021924 88 167 1.0 3.0 0.00 0.03 0.03 68 1012.9
20260901020741 88 183 2.0 4.0 0.00 0.03 0.03 68 1012.7
20260901020220 88 175 2.0 4.0 0.00 0.03 0.03 69 1012.7
20260901015702 88 185 2.0 4.0 0.00 0.03 0.03 69 1012.7
20260901014523 88 191 3.0 5.0 0.00 0.03 0.03 70 1012.6
20260901014007 88 180 3.0 5.0 0.00 0.03 0.03 69 1012.5
20260901013446 88 140 2.0 5.0 0.00 0.03 0.03 70 1012.5
20260901012926 88 184 3.0 5.0 0.00 0.03 0.03 69 1012.5
20260901012415 88 181 3.0 5.0 0.00 0.03 0.03 69 1012.5
20260901011921 88 182 3.0 5.0 0.00 0.03 0.03 69 1012.4
20260901011413 88 178 3.0 5.0 0.00 0.03 0.03 69 1012.5
20260901010901 88 191 3.0 6.0 0.00 0.03 0.03 69 1012.7
20260901010348 88 177 3.0 6.0 0.00 0.03 0.03 69 1012.7
20260901004541 89 180 4.0 8.0 0.00 0.03 0.03 69 1012.7
20260901003353 89 182 3.0 6.0 0.00 0.03 0.03 69 1012.7
20260901002236 89 184 3.0 6.0 0.00 0.03 0.03 67 1012.8
20260901001740 89 179 2.0 6.0 0.00 0.03 0.03 68 1012.7
20260901000558 89 167 2.0 5.0 0.00 0.03 0.03 67 1012.8
20260901000044 90 145 2.0 5.0 0.00 0.03 0.03 67 1012.8
20260831234312 90 183 2.0 5.0 0.00 0.03 0.03 68 1013.0